Вернуться в каталог

NIMBUS 2 DEB

АктивенLEO
NORAD 28205·DEBRIS·🇺🇸 United States

Запущен May 15, 1966 с Vandenberg Space Force Base

Loading…

Ближайшие Пролёты (ближайшие 24 часа)

TLE

СвежийSource: Space-Track

Эпоха: Sep 14, 2026, 10:14 UTC

1 28205U 66040T   26257.42693231  .00001690  00000-0  24851-2 0  9993
2 28205 100.3336 139.3277 0054351  60.4139 116.5319 13.55379303104761

Отслеживайте NIMBUS 2 DEB в реальном времени с AllMySat

Download on the App Store